contact:dominique.lefevre@mio.osupytheas.fr, maurice.libes@osupytheas.fr, didier.mallarino@osupytheas.fr
Project:EMSO http://www.emso-fr.org/EMSO-France
Depth: 2436.0 m
Title:EMSO Ligure Ouest : Data MII capteur CSTAR
DateTime,Latitude,Longitude,Instrument_Serial,Reference_Counts,Signal_Counts,Corrected_Signal_raw_counts,Calculated_Beam_c_inverse_meters,Internal_thermistor_counts
DateTime,Latitude,Longitude,Instrument_Serial,Reference_Counts,Signal_Counts,Corrected_Signal_raw_counts,Calculated_Beam_c_inverse_meters,Internal_thermistor_counts
2019-08-19T00:00:16,42.805,6.029,CST-1368DR,8252,11548,15418,0.051,551
2019-08-19T00:03:17,42.805,6.029,CST-1368DR,8253,11550,15420,0.051,551
2019-08-19T00:06:19,42.805,6.029,CST-1368DR,8252,11550,15422,0.050,551
2019-08-19T00:09:20,42.805,6.029,CST-1368DR,8252,11548,15419,0.051,551
2019-08-19T00:12:22,42.805,6.029,CST-1368DR,8252,11550,15422,0.050,551
2019-08-19T00:15:24,42.805,6.029,CST-1368DR,8252,11541,15410,0.053,551
2019-08-19T00:18:25,42.805,6.029,CST-1368DR,8252,11546,15416,0.052,551
2019-08-19T00:21:27,42.805,6.029,CST-1368DR,8252,11547,15418,0.051,551
2019-08-19T00:24:29,42.805,6.029,CST-1368DR,8252,11547,15418,0.051,551
2019-08-19T00:27:30,42.805,6.029,CST-1368DR,8252,11549,15421,0.050,551
2019-08-19T00:30:32,42.805,6.029,CST-1368DR,8252,11551,15422,0.050,551
2019-08-19T00:33:34,42.805,6.029,CST-1368DR,8252,11549,15420,0.051,551
2019-08-19T00:36:35,42.805,6.029,CST-1368DR,8252,11547,15417,0.051,551
2019-08-19T00:39:37,42.805,6.029,CST-1368DR,8252,11550,15421,0.050,551
2019-08-19T00:42:38,42.805,6.029,CST-1368DR,8252,11544,15414,0.052,551
2019-08-19T00:45:40,42.805,6.029,CST-1368DR,8252,11550,15421,0.050,551
2019-08-19T00:48:42,42.805,6.029,CST-1368DR,8252,11548,15419,0.051,551
2019-08-19T00:51:43,42.805,6.029,CST-1368DR,8252,11548,15419,0.051,551
2019-08-19T00:54:45,42.805,6.029,CST-1368DR,8252,11547,15418,0.051,551
2019-08-19T00:57:47,42.805,6.029,CST-1368DR,8252,11548,15418,0.051,551
2019-08-19T01:00:49,42.805,6.029,CST-1368DR,8252,11549,15420,0.051,551
2019-08-19T01:03:51,42.805,6.029,CST-1368DR,8252,11550,15421,0.050,551
2019-08-19T01:06:52,42.805,6.029,CST-1368DR,8252,11550,15422,0.050,550
2019-08-19T01:09:54,42.805,6.029,CST-1368DR,8252,11549,15420,0.051,551
2019-08-19T01:12:56,42.805,6.029,CST-1368DR,8252,11547,15417,0.051,551
2019-08-19T01:15:57,42.805,6.029,CST-1368DR,8252,11549,15420,0.051,551
2019-08-19T01:18:59,42.805,6.029,CST-1368DR,8252,11548,15419,0.051,551
2019-08-19T01:22:00,42.805,6.029,CST-1368DR,8252,11547,15417,0.051,551
2019-08-19T01:25:02,42.805,6.029,CST-1368DR,8252,11546,15417,0.051,551
2019-08-19T01:28:04,42.805,6.029,CST-1368DR,8252,11549,15420,0.051,551
2019-08-19T01:31:05,42.805,6.029,CST-1368DR,8252,11549,15420,0.051,551
2019-08-19T01:34:07,42.805,6.029,CST-1368DR,8252,11547,15417,0.051,551
2019-08-19T01:37:10,42.805,6.029,CST-1368DR,8252,11549,15420,0.051,551
2019-08-19T01:40:11,42.805,6.029,CST-1368DR,8252,11548,15418,0.051,551
2019-08-19T01:43:13,42.805,6.029,CST-1368DR,8252,11548,15418,0.051,551
2019-08-19T01:46:14,42.805,6.029,CST-1368DR,8252,11543,15412,0.053,551
2019-08-19T01:49:16,42.805,6.029,CST-1368DR,8252,11544,15413,0.052,551
2019-08-19T01:52:18,42.805,6.029,CST-1368DR,8252,11545,15414,0.052,551
2019-08-19T01:55:19,42.805,6.029,CST-1368DR,8252,11548,15419,0.051,551
2019-08-19T01:58:21,42.805,6.029,CST-1368DR,8252,11550,15421,0.050,551
2019-08-19T02:01:23,42.805,6.029,CST-1368DR,8252,11545,15415,0.052,551
2019-08-19T02:04:24,42.805,6.029,CST-1368DR,8252,11548,15419,0.051,551
2019-08-19T02:07:26,42.805,6.029,CST-1368DR,8251,11545,15417,0.051,551
2019-08-19T02:10:28,42.805,6.029,CST-1368DR,8252,11548,15419,0.051,551
2019-08-19T02:13:29,42.805,6.029,CST-1368DR,8251,11549,15422,0.050,551
2019-08-19T02:16:31,42.805,6.029,CST-1368DR,8251,11547,15419,0.051,550
2019-08-19T02:19:33,42.805,6.029,CST-1368DR,8251,11548,15420,0.051,551
2019-08-19T02:22:34,42.805,6.029,CST-1368DR,8251,11548,15421,0.050,551
2019-08-19T02:25:36,42.805,6.029,CST-1368DR,8251,11546,15418,0.051,551
2019-08-19T02:28:38,42.805,6.029,CST-1368DR,8251,11549,15422,0.050,551
2019-08-19T02:31:39,42.805,6.029,CST-1368DR,8251,11547,15419,0.051,551
2019-08-19T02:34:41,42.805,6.029,CST-1368DR,8251,11548,15420,0.051,551
2019-08-19T02:37:43,42.805,6.029,CST-1368DR,8251,11549,15422,0.050,551
2019-08-19T02:40:44,42.805,6.029,CST-1368DR,8251,11548,15421,0.050,551
2019-08-19T02:43:46,42.805,6.029,CST-1368DR,8251,11548,15421,0.050,551
2019-08-19T02:46:47,42.805,6.029,CST-1368DR,8251,11546,15418,0.051,551
2019-08-19T02:49:49,42.805,6.029,CST-1368DR,8251,11549,15422,0.050,551
2019-08-19T02:52:51,42.805,6.029,CST-1368DR,8251,11547,15419,0.051,551
2019-08-19T02:55:52,42.805,6.029,CST-1368DR,8251,11547,15420,0.051,551
2019-08-19T02:58:54,42.805,6.029,CST-1368DR,8251,11548,15421,0.050,551
2019-08-19T03:01:56,42.805,6.029,CST-1368DR,8251,11549,15422,0.050,551
2019-08-19T03:04:57,42.805,6.029,CST-1368DR,8251,11547,15419,0.051,551
2019-08-19T03:07:59,42.805,6.029,CST-1368DR,8251,11547,15419,0.051,551
2019-08-19T03:11:01,42.805,6.029,CST-1368DR,8251,11548,15420,0.051,551
2019-08-19T03:14:02,42.805,6.029,CST-1368DR,8251,11547,15420,0.051,550
2019-08-19T03:17:04,42.805,6.029,CST-1368DR,8251,11547,15419,0.051,551
2019-08-19T03:20:06,42.805,6.029,CST-1368DR,8251,11549,15422,0.050,551
2019-08-19T03:23:08,42.805,6.029,CST-1368DR,8251,11545,15417,0.051,551
2019-08-19T03:26:09,42.805,6.029,CST-1368DR,8251,11549,15422,0.050,551
2019-08-19T03:29:11,42.805,6.029,CST-1368DR,8251,11548,15420,0.051,551
2019-08-19T03:32:12,42.805,6.029,CST-1368DR,8251,11545,15416,0.052,551
2019-08-19T03:35:14,42.805,6.029,CST-1368DR,8251,11547,15419,0.051,551
2019-08-19T03:38:16,42.805,6.029,CST-1368DR,8251,11547,15419,0.051,551
2019-08-19T03:41:17,42.805,6.029,CST-1368DR,8251,11547,15419,0.051,551
2019-08-19T03:44:19,42.805,6.029,CST-1368DR,8251,11548,15420,0.051,551
2019-08-19T03:47:21,42.805,6.029,CST-1368DR,8251,11549,15422,0.050,551
2019-08-19T03:50:22,42.805,6.029,CST-1368DR,8251,11547,15419,0.051,551
2019-08-19T03:53:24,42.805,6.029,CST-1368DR,8251,11548,15421,0.050,551
2019-08-19T03:56:26,42.805,6.029,CST-1368DR,8251,11547,15420,0.051,551
2019-08-19T03:59:27,42.805,6.029,CST-1368DR,8251,11547,15419,0.051,551
2019-08-19T04:02:29,42.805,6.029,CST-1368DR,8251,11548,15420,0.051,551
2019-08-19T04:05:31,42.805,6.029,CST-1368DR,8251,11544,15416,0.052,551
2019-08-19T04:08:32,42.805,6.029,CST-1368DR,8251,11544,15415,0.052,551
2019-08-19T04:11:34,42.805,6.029,CST-1368DR,8251,11546,15417,0.051,551
2019-08-19T04:14:35,42.805,6.029,CST-1368DR,8251,11547,15419,0.051,551
2019-08-19T04:17:37,42.805,6.029,CST-1368DR,8250,11547,15421,0.050,551
2019-08-19T04:20:39,42.805,6.029,CST-1368DR,8251,11547,15419,0.051,551
2019-08-19T04:23:40,42.805,6.029,CST-1368DR,8250,11547,15421,0.050,551
2019-08-19T04:26:42,42.805,6.029,CST-1368DR,8250,11548,15422,0.050,551
2019-08-19T04:29:44,42.805,6.029,CST-1368DR,8250,11548,15422,0.050,551
2019-08-19T04:32:45,42.805,6.029,CST-1368DR,8250,11547,15421,0.050,551
2019-08-19T04:35:47,42.805,6.029,CST-1368DR,8250,11547,15421,0.050,551
2019-08-19T04:38:49,42.805,6.029,CST-1368DR,8250,11547,15421,0.050,551
2019-08-19T04:41:50,42.805,6.029,CST-1368DR,8250,11547,15421,0.050,551
2019-08-19T04:44:52,42.805,6.029,CST-1368DR,8250,11546,15419,0.051,551
2019-08-19T04:47:53,42.805,6.029,CST-1368DR,8250,11546,15419,0.051,550
2019-08-19T04:50:55,42.805,6.029,CST-1368DR,8250,11546,15420,0.051,550
2019-08-19T04:53:57,42.805,6.029,CST-1368DR,8250,11545,15418,0.051,551
2019-08-19T04:56:58,42.805,6.029,CST-1368DR,8250,11546,15420,0.051,551
2019-08-19T05:00:00,42.805,6.029,CST-1368DR,8250,11546,15420,0.051,551
2019-08-19T05:03:02,42.805,6.029,CST-1368DR,8250,11544,15416,0.052,551
2019-08-19T05:06:03,42.805,6.029,CST-1368DR,8250,11546,15419,0.051,551
2019-08-19T05:09:05,42.805,6.029,CST-1368DR,8250,11548,15422,0.050,551
2019-08-19T05:12:07,42.805,6.029,CST-1368DR,8250,11545,15418,0.051,551
2019-08-19T05:15:08,42.805,6.029,CST-1368DR,8250,11534,15403,0.055,551
2019-08-19T05:18:10,42.805,6.029,CST-1368DR,8250,11545,15418,0.051,551
2019-08-19T05:21:12,42.805,6.029,CST-1368DR,8250,11543,15415,0.052,550
2019-08-19T05:24:13,42.805,6.029,CST-1368DR,8250,11543,15415,0.052,551
2019-08-19T05:27:15,42.805,6.029,CST-1368DR,8250,11544,15416,0.052,551
2019-08-19T05:30:16,42.805,6.029,CST-1368DR,8250,11546,15419,0.051,551
2019-08-19T05:33:18,42.805,6.029,CST-1368DR,8250,11545,15418,0.051,551
2019-08-19T05:36:20,42.805,6.029,CST-1368DR,8250,11545,15418,0.051,551
2019-08-19T05:39:21,42.805,6.029,CST-1368DR,8250,11546,15419,0.051,551
2019-08-19T05:42:23,42.805,6.029,CST-1368DR,8250,11546,15420,0.051,551
2019-08-19T05:45:25,42.805,6.029,CST-1368DR,8250,11547,15421,0.050,551
2019-08-19T05:48:26,42.805,6.029,CST-1368DR,8250,11543,15415,0.052,551
2019-08-19T05:51:28,42.805,6.029,CST-1368DR,8250,11546,15419,0.051,551
2019-08-19T05:54:29,42.805,6.029,CST-1368DR,8249,11546,15421,0.050,551
2019-08-19T05:57:31,42.805,6.029,CST-1368DR,8249,11538,15411,0.053,551
2019-08-19T06:00:33,42.805,6.029,CST-1368DR,8249,11543,15417,0.051,551
2019-08-19T06:03:34,42.805,6.029,CST-1368DR,8249,11535,15406,0.054,551
2019-08-19T06:06:36,42.805,6.029,CST-1368DR,8249,11537,15410,0.053,551
2019-08-19T06:09:38,42.805,6.029,CST-1368DR,8249,11544,15418,0.051,551
2019-08-19T06:12:40,42.805,6.029,CST-1368DR,8249,11545,15420,0.051,551
2019-08-19T06:15:41,42.805,6.029,CST-1368DR,8249,11546,15421,0.050,551
2019-08-19T06:18:43,42.805,6.029,CST-1368DR,8249,11544,15419,0.051,551
2019-08-19T06:21:45,42.805,6.029,CST-1368DR,8249,11544,15418,0.051,551
2019-08-19T06:24:46,42.805,6.029,CST-1368DR,8249,11545,15420,0.051,551
2019-08-19T06:27:49,42.805,6.029,CST-1368DR,8249,11545,15419,0.051,551
2019-08-19T06:30:50,42.805,6.029,CST-1368DR,8249,11545,15419,0.051,551
2019-08-19T06:33:52,42.805,6.029,CST-1368DR,8249,11541,15414,0.052,551
2019-08-19T06:36:53,42.805,6.029,CST-1368DR,8249,11545,15419,0.051,551
2019-08-19T06:39:55,42.805,6.029,CST-1368DR,8249,11546,15421,0.050,551
2019-08-19T06:42:57,42.805,6.029,CST-1368DR,8249,11541,15414,0.052,551
2019-08-19T06:45:58,42.805,6.029,CST-1368DR,8249,11545,15420,0.051,551
2019-08-19T06:49:00,42.805,6.029,CST-1368DR,8249,11544,15418,0.051,551
2019-08-19T06:52:02,42.805,6.029,CST-1368DR,8249,11543,15417,0.051,550
2019-08-19T06:55:03,42.805,6.029,CST-1368DR,8249,11544,15419,0.051,551
2019-08-19T06:58:05,42.805,6.029,CST-1368DR,8249,11545,15420,0.051,551
2019-08-19T07:01:07,42.805,6.029,CST-1368DR,8249,11544,15419,0.051,551
2019-08-19T07:04:08,42.805,6.029,CST-1368DR,8249,11544,15419,0.051,551
2019-08-19T07:07:10,42.805,6.029,CST-1368DR,8249,11546,15422,0.050,550
2019-08-19T07:10:12,42.805,6.029,CST-1368DR,8249,11545,15420,0.051,551
2019-08-19T07:13:13,42.805,6.029,CST-1368DR,8249,11545,15420,0.051,551
2019-08-19T07:16:15,42.805,6.029,CST-1368DR,8249,11546,15421,0.050,551
2019-08-19T07:19:16,42.805,6.029,CST-1368DR,8249,11544,15419,0.051,550
2019-08-19T07:22:18,42.805,6.029,CST-1368DR,8249,11543,15417,0.051,551
2019-08-19T07:25:20,42.805,6.029,CST-1368DR,8249,11535,15406,0.054,551
2019-08-19T07:28:21,42.805,6.029,CST-1368DR,8249,11544,15419,0.051,551
2019-08-19T07:31:23,42.805,6.029,CST-1368DR,8249,11545,15420,0.051,551
2019-08-19T07:34:25,42.805,6.029,CST-1368DR,8249,11544,15418,0.051,551
2019-08-19T07:37:26,42.805,6.029,CST-1368DR,8249,11545,15419,0.051,551
2019-08-19T07:40:28,42.805,6.029,CST-1368DR,8249,11546,15421,0.050,551
2019-08-19T07:43:30,42.805,6.029,CST-1368DR,8249,11547,15422,0.050,551
2019-08-19T07:46:31,42.805,6.029,CST-1368DR,8249,11545,15420,0.051,550
2019-08-19T07:49:33,42.805,6.029,CST-1368DR,8249,11543,15418,0.051,551
2019-08-19T07:52:35,42.805,6.029,CST-1368DR,8249,11546,15421,0.050,551
2019-08-19T07:55:36,42.805,6.029,CST-1368DR,8249,11545,15420,0.051,551
2019-08-19T07:58:38,42.805,6.029,CST-1368DR,8249,11546,15421,0.050,551
2019-08-19T08:01:40,42.805,6.029,CST-1368DR,8249,11545,15420,0.051,551
2019-08-19T08:04:41,42.805,6.029,CST-1368DR,8249,11543,15417,0.051,551
2019-08-19T08:07:43,42.805,6.029,CST-1368DR,8249,11546,15421,0.050,551
2019-08-19T08:10:45,42.805,6.029,CST-1368DR,8249,11544,15418,0.051,551
2019-08-19T08:13:46,42.805,6.029,CST-1368DR,8249,11544,15418,0.051,551
2019-08-19T08:16:48,42.805,6.029,CST-1368DR,8249,11545,15420,0.051,551
2019-08-19T08:19:50,42.805,6.029,CST-1368DR,8249,11544,15418,0.051,551
2019-08-19T08:22:51,42.805,6.029,CST-1368DR,8248,11544,15421,0.050,551
2019-08-19T08:25:53,42.805,6.029,CST-1368DR,8249,11546,15422,0.050,551
2019-08-19T08:28:55,42.805,6.029,CST-1368DR,8249,11545,15419,0.051,550
2019-08-19T08:31:56,42.805,6.029,CST-1368DR,8249,11545,15420,0.051,551
2019-08-19T08:34:58,42.805,6.029,CST-1368DR,8248,11543,15419,0.051,551
2019-08-19T08:37:59,42.805,6.029,CST-1368DR,8248,11544,15421,0.050,551
2019-08-19T08:41:01,42.805,6.029,CST-1368DR,8248,11545,15422,0.050,551
2019-08-19T08:44:03,42.805,6.029,CST-1368DR,8248,11546,15424,0.049,550
2019-08-19T08:47:04,42.805,6.029,CST-1368DR,8248,11545,15421,0.050,551
2019-08-19T08:50:06,42.805,6.029,CST-1368DR,8248,11545,15422,0.050,551
2019-08-19T08:53:08,42.805,6.029,CST-1368DR,8248,11545,15422,0.050,551
2019-08-19T08:56:09,42.805,6.029,CST-1368DR,8248,11545,15421,0.050,550
2019-08-19T08:59:11,42.805,6.029,CST-1368DR,8248,11546,15423,0.050,551
2019-08-19T09:02:13,42.805,6.029,CST-1368DR,8248,11543,15419,0.051,551
2019-08-19T09:05:14,42.805,6.029,CST-1368DR,8248,11544,15420,0.051,551
2019-08-19T09:08:16,42.805,6.029,CST-1368DR,8248,11542,15418,0.051,551
2019-08-19T09:11:18,42.805,6.029,CST-1368DR,8248,11544,15421,0.050,551
2019-08-19T09:14:19,42.805,6.029,CST-1368DR,8248,11545,15422,0.050,551
2019-08-19T09:17:21,42.805,6.029,CST-1368DR,8248,11544,15421,0.050,551
2019-08-19T09:20:23,42.805,6.029,CST-1368DR,8248,11544,15421,0.050,551
2019-08-19T09:23:24,42.805,6.029,CST-1368DR,8248,11545,15421,0.050,551
2019-08-19T09:26:26,42.805,6.029,CST-1368DR,8248,11544,15420,0.051,551
2019-08-19T09:29:28,42.805,6.029,CST-1368DR,8248,11544,15420,0.051,550
2019-08-19T09:32:29,42.805,6.029,CST-1368DR,8248,11544,15421,0.050,551
2019-08-19T09:35:31,42.805,6.029,CST-1368DR,8248,11541,15417,0.051,551
2019-08-19T09:38:33,42.805,6.029,CST-1368DR,8248,11542,15417,0.051,551
2019-08-19T09:41:34,42.805,6.029,CST-1368DR,8248,11542,15418,0.051,551
2019-08-19T09:44:36,42.805,6.029,CST-1368DR,8248,11536,15410,0.053,551
2019-08-19T09:47:38,42.805,6.029,CST-1368DR,8248,11545,15422,0.050,551
2019-08-19T09:50:39,42.805,6.029,CST-1368DR,8248,11545,15422,0.050,551
2019-08-19T09:53:41,42.805,6.029,CST-1368DR,8248,11544,15421,0.050,551
2019-08-19T09:56:43,42.805,6.029,CST-1368DR,8248,11544,15420,0.051,551
2019-08-19T09:59:44,42.805,6.029,CST-1368DR,8248,11545,15421,0.050,551
2019-08-19T10:02:46,42.805,6.029,CST-1368DR,8248,11544,15421,0.050,551
2019-08-19T10:05:48,42.805,6.029,CST-1368DR,8248,11543,15420,0.051,551
2019-08-19T10:08:49,42.805,6.029,CST-1368DR,8248,11542,15418,0.051,551
2019-08-19T10:11:51,42.805,6.029,CST-1368DR,8248,11541,15417,0.051,551
2019-08-19T10:14:53,42.805,6.029,CST-1368DR,8248,11543,15419,0.051,551
2019-08-19T10:17:54,42.805,6.029,CST-1368DR,8248,11543,15419,0.051,551
2019-08-19T10:20:56,42.805,6.029,CST-1368DR,8248,11543,15419,0.051,551
2019-08-19T10:23:58,42.805,6.029,CST-1368DR,8248,11542,15418,0.051,551
2019-08-19T10:26:59,42.805,6.029,CST-1368DR,8248,11544,15421,0.050,550
2019-08-19T10:30:01,42.805,6.029,CST-1368DR,8248,11543,15419,0.051,551
2019-08-19T10:33:03,42.805,6.029,CST-1368DR,8248,11543,15419,0.051,551
2019-08-19T10:36:04,42.805,6.029,CST-1368DR,8248,11540,15415,0.052,551
2019-08-19T10:39:06,42.805,6.029,CST-1368DR,8248,11544,15420,0.051,551
2019-08-19T10:42:08,42.805,6.029,CST-1368DR,8247,11541,15418,0.051,551
2019-08-19T10:45:09,42.805,6.029,CST-1368DR,8247,11542,15420,0.051,551
2019-08-19T10:48:11,42.805,6.029,CST-1368DR,8247,11543,15420,0.051,551
2019-08-19T10:51:12,42.805,6.029,CST-1368DR,8247,11543,15421,0.050,551
2019-08-19T10:54:14,42.805,6.029,CST-1368DR,8247,11543,15421,0.050,551
2019-08-19T10:57:16,42.805,6.029,CST-1368DR,8247,11543,15421,0.050,551
2019-08-19T11:00:17,42.805,6.029,CST-1368DR,8247,11527,15400,0.056,551
2019-08-19T11:03:19,42.805,6.029,CST-1368DR,8247,11539,15416,0.052,551
2019-08-19T11:06:21,42.805,6.029,CST-1368DR,8247,11543,15421,0.050,550
2019-08-19T11:09:22,42.805,6.029,CST-1368DR,8247,11543,15421,0.050,551
2019-08-19T11:12:24,42.805,6.029,CST-1368DR,8247,11541,15419,0.051,551
2019-08-19T11:15:26,42.805,6.029,CST-1368DR,8247,11541,15419,0.051,551
2019-08-19T11:18:27,42.805,6.029,CST-1368DR,8247,11542,15420,0.051,551
2019-08-19T11:21:29,42.805,6.029,CST-1368DR,8247,11540,15416,0.052,551
2019-08-19T11:24:31,42.805,6.029,CST-1368DR,8247,11540,15417,0.051,551
2019-08-19T11:27:32,42.805,6.029,CST-1368DR,8247,11542,15420,0.051,551
2019-08-19T11:30:34,42.805,6.029,CST-1368DR,8247,11542,15420,0.051,550
2019-08-19T11:33:36,42.805,6.029,CST-1368DR,8247,11543,15421,0.050,551
2019-08-19T11:36:37,42.805,6.029,CST-1368DR,8247,11541,15419,0.051,551
2019-08-19T11:39:39,42.805,6.029,CST-1368DR,8247,11543,15421,0.050,551
2019-08-19T11:42:41,42.805,6.029,CST-1368DR,8247,11543,15420,0.051,551
2019-08-19T11:45:43,42.805,6.029,CST-1368DR,8247,11540,15416,0.052,551
2019-08-19T11:48:44,42.805,6.029,CST-1368DR,8247,11542,15420,0.051,551
2019-08-19T11:51:46,42.805,6.029,CST-1368DR,8247,11541,15418,0.051,551
2019-08-19T11:54:48,42.805,6.029,CST-1368DR,8247,11540,15417,0.051,551
2019-08-19T11:57:50,42.805,6.029,CST-1368DR,8247,11543,15421,0.050,551
2019-08-19T12:00:52,42.805,6.029,CST-1368DR,8247,11540,15417,0.051,550
2019-08-19T12:03:53,42.805,6.029,CST-1368DR,8247,11539,15416,0.052,551
2019-08-19T12:06:55,42.805,6.029,CST-1368DR,8247,11542,15420,0.051,550
2019-08-19T12:09:57,42.805,6.029,CST-1368DR,8247,11541,15419,0.051,551
2019-08-19T12:12:58,42.805,6.029,CST-1368DR,8247,11540,15416,0.052,551
2019-08-19T12:16:00,42.805,6.029,CST-1368DR,8247,11540,15417,0.051,551
2019-08-19T12:19:01,42.805,6.029,CST-1368DR,8247,11537,15413,0.052,551
2019-08-19T12:22:03,42.805,6.029,CST-1368DR,8247,11541,15418,0.051,551
2019-08-19T12:25:05,42.805,6.029,CST-1368DR,8247,11542,15420,0.051,551
2019-08-19T12:28:07,42.805,6.029,CST-1368DR,8247,11541,15418,0.051,551
2019-08-19T12:31:08,42.805,6.029,CST-1368DR,8247,11539,15416,0.052,551
2019-08-19T12:34:10,42.805,6.029,CST-1368DR,8247,11540,15417,0.051,551
2019-08-19T12:37:12,42.805,6.029,CST-1368DR,8247,11540,15417,0.051,551
2019-08-19T12:40:13,42.805,6.029,CST-1368DR,8247,11539,15416,0.052,551
2019-08-19T12:43:15,42.805,6.029,CST-1368DR,8247,11537,15413,0.052,550
2019-08-19T12:46:17,42.805,6.029,CST-1368DR,8247,11540,15417,0.051,551
2019-08-19T12:49:18,42.805,6.029,CST-1368DR,8247,11541,15418,0.051,551
2019-08-19T12:52:20,42.805,6.029,CST-1368DR,8247,11543,15421,0.050,551
2019-08-19T12:55:21,42.805,6.029,CST-1368DR,8247,11540,15417,0.051,551
2019-08-19T12:58:23,42.805,6.029,CST-1368DR,8247,11543,15420,0.051,551
2019-08-19T13:01:26,42.805,6.029,CST-1368DR,8247,11543,15421,0.050,551
2019-08-19T13:04:27,42.805,6.029,CST-1368DR,8247,11539,15416,0.052,551
2019-08-19T13:07:29,42.805,6.029,CST-1368DR,8246,11542,15421,0.050,551
2019-08-19T13:10:31,42.805,6.029,CST-1368DR,8246,11540,15419,0.051,551
2019-08-19T13:13:32,42.805,6.029,CST-1368DR,8246,11542,15421,0.050,551
2019-08-19T13:16:34,42.805,6.029,CST-1368DR,8246,11542,15422,0.050,551
2019-08-19T13:19:35,42.805,6.029,CST-1368DR,8246,11541,15420,0.051,551
2019-08-19T13:22:37,42.805,6.029,CST-1368DR,8247,11542,15419,0.051,551
2019-08-19T13:25:39,42.805,6.029,CST-1368DR,8246,11541,15420,0.051,551
2019-08-19T13:28:41,42.805,6.029,CST-1368DR,8246,11542,15421,0.050,551
2019-08-19T13:31:42,42.805,6.029,CST-1368DR,8246,11542,15421,0.050,551
2019-08-19T13:34:44,42.805,6.029,CST-1368DR,8246,11540,15419,0.051,551
2019-08-19T13:37:45,42.805,6.029,CST-1368DR,8246,11542,15421,0.050,551
2019-08-19T13:40:47,42.805,6.029,CST-1368DR,8246,11537,15415,0.052,551
2019-08-19T13:43:49,42.805,6.029,CST-1368DR,8246,11541,15419,0.051,551
2019-08-19T13:46:50,42.805,6.029,CST-1368DR,8246,11541,15419,0.051,551
2019-08-19T13:49:52,42.805,6.029,CST-1368DR,8246,11542,15422,0.050,551
2019-08-19T13:52:54,42.805,6.029,CST-1368DR,8246,11540,15419,0.051,551
2019-08-19T13:55:55,42.805,6.029,CST-1368DR,8246,11542,15421,0.050,551
2019-08-19T13:58:57,42.805,6.029,CST-1368DR,8246,11540,15419,0.051,551
2019-08-19T14:01:59,42.805,6.029,CST-1368DR,8246,11540,15419,0.051,550
2019-08-19T14:05:00,42.805,6.029,CST-1368DR,8246,11541,15420,0.051,551
2019-08-19T14:08:02,42.805,6.029,CST-1368DR,8246,11540,15419,0.051,551
2019-08-19T14:11:04,42.805,6.029,CST-1368DR,8246,11541,15419,0.051,550
2019-08-19T14:14:05,42.805,6.029,CST-1368DR,8246,11538,15416,0.052,550
2019-08-19T14:17:07,42.805,6.029,CST-1368DR,8246,11541,15419,0.051,551
2019-08-19T14:20:08,42.805,6.029,CST-1368DR,8246,11540,15418,0.051,551
2019-08-19T14:23:10,42.805,6.029,CST-1368DR,8246,11540,15419,0.051,551
2019-08-19T14:26:12,42.805,6.029,CST-1368DR,8246,11541,15420,0.051,550
2019-08-19T14:29:13,42.805,6.029,CST-1368DR,8246,11540,15419,0.051,550
2019-08-19T14:32:15,42.805,6.029,CST-1368DR,8246,11537,15415,0.052,551
2019-08-19T14:35:17,42.805,6.029,CST-1368DR,8246,11540,15419,0.051,551
2019-08-19T14:38:18,42.805,6.029,CST-1368DR,8246,11540,15418,0.051,550
2019-08-19T14:41:20,42.805,6.029,CST-1368DR,8246,11539,15418,0.051,551
2019-08-19T14:44:21,42.805,6.029,CST-1368DR,8246,11537,15414,0.052,551
2019-08-19T14:47:23,42.805,6.029,CST-1368DR,8246,11539,15417,0.051,551
2019-08-19T14:50:25,42.805,6.029,CST-1368DR,8246,11536,15414,0.052,550
2019-08-19T14:53:26,42.805,6.029,CST-1368DR,8246,11540,15419,0.051,551
2019-08-19T14:56:28,42.805,6.029,CST-1368DR,8246,11539,15417,0.051,551
2019-08-19T14:59:30,42.805,6.029,CST-1368DR,8246,11534,15411,0.053,551
2019-08-19T15:02:31,42.805,6.029,CST-1368DR,8245,11538,15418,0.051,551
2019-08-19T15:05:33,42.805,6.029,CST-1368DR,8245,11536,15415,0.052,551
2019-08-19T15:08:35,42.805,6.029,CST-1368DR,8246,11540,15418,0.051,551
2019-08-19T15:11:36,42.805,6.029,CST-1368DR,8246,11539,15417,0.051,551
2019-08-19T15:14:38,42.805,6.029,CST-1368DR,8245,11537,15416,0.052,551
2019-08-19T15:17:40,42.805,6.029,CST-1368DR,8245,11540,15420,0.051,551
2019-08-19T15:20:41,42.805,6.029,CST-1368DR,8245,11539,15419,0.051,551
2019-08-19T15:23:43,42.805,6.029,CST-1368DR,8245,11539,15419,0.051,550
2019-08-19T15:26:44,42.805,6.029,CST-1368DR,8245,11538,15417,0.051,551
2019-08-19T15:29:46,42.805,6.029,CST-1368DR,8245,11537,15416,0.052,550
2019-08-19T15:32:48,42.805,6.029,CST-1368DR,8245,11538,15417,0.051,551
2019-08-19T15:35:49,42.805,6.029,CST-1368DR,8245,11537,15416,0.052,551
2019-08-19T15:38:51,42.805,6.029,CST-1368DR,8245,11534,15413,0.052,551
2019-08-19T15:41:53,42.805,6.029,CST-1368DR,8245,11536,15415,0.052,551
2019-08-19T15:44:54,42.805,6.029,CST-1368DR,8245,11538,15417,0.051,551
2019-08-19T15:47:56,42.805,6.029,CST-1368DR,8245,11538,15418,0.051,550
2019-08-19T15:50:58,42.805,6.029,CST-1368DR,8245,11539,15419,0.051,551
2019-08-19T15:53:59,42.805,6.029,CST-1368DR,8245,11537,15417,0.051,551
2019-08-19T15:57:01,42.805,6.029,CST-1368DR,8245,11537,15416,0.052,551
2019-08-19T16:00:02,42.805,6.029,CST-1368DR,8245,11534,15412,0.053,551
2019-08-19T16:03:04,42.805,6.029,CST-1368DR,8245,11536,15415,0.052,550
2019-08-19T16:06:06,42.805,6.029,CST-1368DR,8245,11536,15415,0.052,551
2019-08-19T16:09:07,42.805,6.029,CST-1368DR,8245,11537,15416,0.052,551
2019-08-19T16:12:09,42.805,6.029,CST-1368DR,8245,11539,15419,0.051,551
2019-08-19T16:15:11,42.805,6.029,CST-1368DR,8245,11532,15410,0.053,551
2019-08-19T16:18:12,42.805,6.029,CST-1368DR,8245,11537,15416,0.052,551
2019-08-19T16:21:14,42.805,6.029,CST-1368DR,8245,11534,15412,0.053,551
2019-08-19T16:24:16,42.805,6.029,CST-1368DR,8245,11537,15416,0.052,551
2019-08-19T16:27:17,42.805,6.029,CST-1368DR,8245,11535,15413,0.052,551
2019-08-19T16:30:19,42.805,6.029,CST-1368DR,8245,11538,15417,0.051,551
2019-08-19T16:33:21,42.805,6.029,CST-1368DR,8245,11532,15410,0.053,550
2019-08-19T16:36:22,42.805,6.029,CST-1368DR,8245,11535,15413,0.052,551